DECAYED

FENGYUN 1C DEB, 30655 (Decayed)

Orbit data source: Space-Track

FENGYUN 1C DEB, 30655 was space debris in SSO originally from a launch on Mon, 10 May 1999 UTC launched from the Taiyaun Space Center, China (TSC). Fengyun 1C debris stems from the Chinese weather satellite Fengyun-1C, which was intentionally destroyed by a Chinese anti-satellite missile in 2007. This event dramatically increased the amount of space debris, with thousands of trackable fragments posing hazards to satellites and human spaceflight. The Fengyun 1C debris cloud has become a focal point in discussions about space sustainability and the need for international regulations to prevent the creation of new debris.

Not visible in the next 10 days
Identifier
30655, 1999-025APM
Orbit
Decayed
Country
Flag of CNCN / PRC
Related business
Manufacturer
Unknown
Mission
Decayed spacecraft
Bus & Motor
Unknown
Mass
Unknown
Launch date (UTC)
1999-05-10 (27 years ago)
Launch vehicle
Unknown
Launch site
Taiyaun Space Center, China (TSC)
Object type
Payload
Rocket body
Debris
Shape & HBR
Unknown shape, 0.1 m
Radar Cross Section
Medium (>0.1 m² and <1 m²)

Expand to show TLE details & history
Last TLE update: 1 year ago

TLE from 1 year ago
0 FENGYUN 1C DEB
1 30655U 99025APM 25137.07831061  .01604300  00000-0  15571-1 0  9992
2 30655  98.7446 181.2771 0016882 221.9282 138.0680 15.63129910947831
Epoch: 2025-05-17T01:52Z
TLE epoch observation values (Epoch: 2025-05-17T01:52:46.036Z)
Latitude
-0.00009°
Longitude
-81.9395°
Altitude
390.225 km
Speed
7.671 km/s
True Right ascension
12h 05m 06s
True Declination
0° 00' 00"
Sunlit
Object was in full shadow at epoch
Visualization orbit readout
Latitude
Unknown
Longitude
Unknown
Altitude
Unknown
Speed
Unknown
Apparent Right ascension
Unknown
Apparent Declination
Unknown
Sunlit
N/A
Visualization observer readout
Local Sidereal Time
10:00:18
Azimuth
Unknown
Elevation
Unknown
Doppler factor
Unknown
Orbital elements
Apogee altitude
386.996 km
Perigee altitude
364.193 km
Semi-major axis
6,753.732 km
Eccentricity
0.00169
Inclination
98.7446°
RAAN
181.2771°
Arg. of periapsis
221.9282°
True anomaly
138.19707°
Mean anomaly
138.068°
Eccentric anomaly
138.13256°
Mean motion
3.91046 °/min
Orbital period
92.06 mins
BSTAR
0.015571
Loading maneuver chart data...
Computing Atmospheric mass density...
Loading historical data...
Loading historical data...
Loading historical data...
Loading historical data...
Loading historical data...
Loading historical data...
Loading historical data...

Documentation

Showing up to 5 results
|